CW9583 Weather Reports


time (UTC)temp
C
wind
direction
speed
KPH
gust
KPH
rain 1hr
cm
rain 24hr
cm
rain mn
cm
humidity
%
barometer
mb
20260504235534 27 314 1.6 14.5 0.00 0.00 0.00 34 1009.8
20260504233418 26 254 4.8 14.5 0.00 0.00 0.00 33 1009.9
20260504232427 26 248 4.8 16.1 0.00 0.00 0.00 33 1009.8
20260504231439 25 264 6.4 16.1 0.00 0.00 0.00 32 1009.8
20260504230448 27 236 1.6 11.3 0.00 0.00 0.00 32 1009.9
20260504225438 26 344 3.2 9.7 0.00 0.00 0.00 35 1010.0
20260504224417 26 331 4.8 14.5 0.00 0.00 0.00 35 1010.2
20260504223433 25 193 4.8 14.5 0.00 0.00 0.00 34 1010.3
20260504222458 25 206 3.2 12.9 0.00 0.00 0.00 35 1010.3
20260504220257 25 32 1.6 17.7 0.00 0.00 0.00 35 1010.5
20260504214203 25 260 3.2 12.9 0.00 0.00 0.00 38 1010.7
20260504213218 25 297 1.6 19.3 0.00 0.00 0.00 37 1010.6
20260504211109 24 269 4.8 12.9 0.00 0.00 0.00 41 1010.6
20260504210114 24 202 3.2 11.3 0.00 0.00 0.00 41 1010.7
20260504204005 23 316 3.2 9.7 0.00 0.00 0.00 43 1010.9
20260504203024 23 170 3.2 9.7 0.00 0.00 0.00 43 1010.7
20260504201957 24 226 3.2 8.0 0.00 0.00 0.00 44 1010.6
20260504201022 24 325 3.2 12.9 0.00 0.00 0.00 44 1010.6
20260504194927 23 200 4.8 12.9 0.00 0.00 0.00 45 1010.7
20260504192736 23 340 1.6 8.0 0.00 0.00 0.00 46 1010.9
20260504191800 22 296 3.2 8.0 0.00 0.00 0.00 47 1011.1
20260504190805 22 317 3.2 12.9 0.00 0.00 0.00 44 1011.1
20260504182335 22 233 3.2 16.1 0.00 0.00 0.00 48 1011.3
20260504181348 22 244 4.8 16.1 0.00 0.00 0.00 50 1011.4
20260504180338 22 248 3.2 11.3 0.00 0.00 0.00 51 1011.4
20260504175311 21 273 3.2 11.3 0.00 0.00 0.00 51 1011.5
20260504174316 22 216 1.6 8.0 0.00 0.00 0.00 50 1011.4
20260504173304 21 188 1.6 8.0 0.00 0.00 0.00 52 1011.4
20260504172323 21 147 1.6 6.4 0.00 0.00 0.00 51 1011.5
20260504171328 21 174 0.0 6.4 0.00 0.00 0.00 51 1011.5
20260504170302 21 207 1.6 6.4 0.00 0.00 0.00 52 1011.5
20260504150955 17 155 0.0 4.8 0.00 0.00 0.00 62 1011.3
20260504140913 13 39 0.0 1.6 0.00 0.00 0.00 77 1011.0
20260504130602 13 153 0.0 0.0 0.00 0.00 0.00 72 1010.2
20260504120248 12 49 0.0 1.6 0.00 0.00 0.00 75 1010.1
20260504110257 12 46 0.0 1.6 0.00 0.00 0.00 76 1010.0
20260504081539 15 49 0.0 1.6 0.00 0.00 0.00 72 1009.7
20260504070248 18 254 0.0 0.0 0.00 0.00 0.00 60 1010.0
20260504045943 20 6 0.0 4.8 0.00 0.00 0.00 55 1009.6
20260504042735 21 6 1.6 4.8 0.00 0.00 0.00 52 1009.5
20260504041741 21 350 1.6 4.8 0.00 0.00 0.00 53 1009.5
20260504040710 21 6 1.6 4.8 0.00 0.00 0.00 54 1009.4
20260504035728 21 337 1.6 4.8 0.00 0.00 0.00 53 1009.4
20260504034716 22 359 1.6 4.8 0.00 0.00 0.00 53 1009.3
20260504033703 22 354 1.6 4.8 0.00 0.00 0.00 50 1009.3
20260504031623 23 295 1.6 6.4 0.00 0.00 0.00 48 1009.2
20260504030615 23 294 1.6 4.8 0.00 0.00 0.00 47 1009.3
20260504025626 24 288 1.6 6.4 0.00 0.00 0.00 46 1009.2
20260504024649 24 328 1.6 9.7 0.00 0.00 0.00 45 1009.3
20260504023709 24 333 3.2 12.9 0.00 0.00 0.00 45 1009.2
20260504022709 25 353 3.2 12.9 0.00 0.00 0.00 44 1009.3
20260504021714 25 302 1.6 11.3 0.00 0.00 0.00 44 1009.3
20260504020656 25 290 4.8 12.9 0.00 0.00 0.00 44 1009.3
20260504014533 26 290 4.8 11.3 0.00 0.00 0.00 42 1009.4
20260504013458 27 340 6.4 14.5 0.00 0.00 0.00 41 1009.4
20260504012453 27 278 4.8 14.5 0.00 0.00 0.00 39 1009.4
20260504011509 27 306 4.8 12.9 0.00 0.00 0.00 40 1009.5
20260504005253 28 319 3.2 11.3 0.00 0.00 0.00 39 1009.7
20260504004240 28 337 4.8 11.3 0.00 0.00 0.00 38 1009.8
20260504003258 28 320 4.8 11.3 0.00 0.00 0.00 39 1009.9
20260504002304 27 294 4.8 12.9 0.00 0.00 0.00 40 1010.0
20260504001250 27 300 4.8 14.5 0.00 0.00 0.00 40 1010.1